Regional Weather Roundup
Issued by NWS

Home | Current Version | Previous Version | Text Only | Print | Product List | Glossary Off
Versions: 1 2 3 4 5 6 7 8 9 10 11 12 13 14 15 16 17 18 19 20 21 22 23 24 25 26 27 28 29 30 31 32 33 34 35 36 37 38 39 40 41 42 43 44 45 46 47 48 49 50

000
ASUS43 KFSD 141302
RWRSD

WEATHER ROUNDUP FOR SOUTH DAKOTA
NATIONAL WEATHER SERVICE SIOUX FALLS SD
700 AM CST THU DEC 14 2017

NOTE: "FAIR" INDICATES FEW OR NO CLOUDS BELOW 12,000 FEET WITH NO
SIGNIFICANT WEATHER AND/OR OBSTRUCTIONS TO VISIBILITY.


SDZ001>005-009-010-012>017-141400-
NORTHWEST AND NORTH CENTRAL SOUTH DAKOTA

CITY           SKY/WX    TMP DP  RH WIND       PRES   REMARKS
BUFFALO          N/A     32  28  85 NW24G36   30.04R WCI  19
FAITH            N/A     32  31  96 NW30      30.02S WCI  18
MOBRIDGE       CLOUDY    33  29  85 NW7       29.98R WCI  27
$$

SDZ012>016-024>037-041>051-057-063-072>074-141400-
SOUTHWEST AND SOUTH CENTRAL SOUTH DAKOTA

CITY           SKY/WX    TMP DP  RH WIND       PRES   REMARKS
RAPID CTY ARPT MOCLDY    35  24  64 NW44G55   30.08R WCI  19
PIERRE         LGT RAIN  36  34  92 NW10      30.01R
CUSTER         CLOUDY    28  15  58 NW18G28   30.05R WCI  15
PHILIP         LGT SNOW  33  33 100 NW17      30.07R FOG     WCI  22
PINE RIDGE     FLURRIES  35  29  78 NW8       30.08R WCI  29
SPEARFISH      LGT RAIN  32  23  69 NW17G31   30.14R WCI  21
WINNER         LGT RAIN  37  34  89 NW16      30.02R
$$

SDZ004>011-016>023-039-040-141400-
NORTHEAST SOUTH DAKOTA

CITY           SKY/WX    TMP DP  RH WIND       PRES   REMARKS
ABERDEEN       CLOUDY    26  26 100 CALM      30.00R
WATERTOWN      CLOUDY    27  26  96 W5        29.96R WCI  22
BROOKINGS      CLOUDY    27  25  92 CALM      29.98R
SISSETON         N/A     21  19  92 S3        30.00R
$$

SDZ017-020-022-023-036>040-048>070-141400-
SOUTHEAST SOUTH DAKOTA

CITY           SKY/WX    TMP DP  RH WIND       PRES   REMARKS
SIOUX FALLS    CLOUDY    28  27  96 E5        30.00R WCI  23
HURON          CLOUDY    29  25  85 W8        30.01R WCI  21
CHAMBERLAIN    LGT SNOW  32  30  92 W5        30.02R WCI  27
MITCHELL       MOCLDY    28  24  85 NW7       30.02R WCI  21
YANKTON        PTCLDY    32  26  78 W6        30.02R WCI  26
$$

ABBREVIATIONS USED IN REMARKS
   TC - TEMPERATURE IN CELSIUS
  WCI - WIND CHILL INDEX
   HX - HEAT INDEX
  VSB - VISIBILITY





USA.gov is the U.S. government's official web portal to all federal, state and local government web resources and services.